CZ-6A DEB, 54518

Orbit data source: Space-Track

CZ-6A DEB, 54518 is space debris in SSO originally from a launch on Fri, 11 Nov 2022 UTC launched from the Taiyaun Space Center, China (TSC). Debris objects in space refer to the collection of defunct objects orbiting the Earth. Examples of debris include non-operational satellites, rocket bodies, and fragments generated from explosions, collisions, or faulty payload assembly.

Loading next visibility...
Identifier
54518, 2022-151JW
Orbit
SSO
Country
Flag of CNCN / PRC
Related business
Manufacturer
SAST
Mission
Spacecraft
Bus & Motor
Unknown
Mass
Unknown
Launch date (UTC)
2022-11-11 (4 years ago)
Launch vehicle
Unknown
Launch site
Taiyaun Space Center, China (TSC)
Object type
Payload
Rocket body
Debris
Shape & HBR
Unknown shape, 0.1 m
Radar Cross Section
Medium (>0.1 m² and <1 m²)

Expand to show TLE details & history
Last TLE update: 15 hours ago

TLE from 15 hours ago
0 CZ-6A DEB
1 54518U 22151JW  26235.61663538  .00000790  00000-0  29723-3 0  9992
2 54518  98.7694 275.8825 0124710 278.5553  80.1514 14.30230242196731
Epoch: 2026-08-23T14:47Z
TLE epoch observation values (Epoch: 2026-08-23T14:47:57.296Z)
Latitude
-0.00007°
Longitude
81.98365°
Altitude
779.679 km
Speed
7.471 km/s
True Right ascension
18h 23m 31s
True Declination
0° 00' 00"
Sunlit
Object was in full shadow at epoch
Visualization orbit readout
Latitude
Unknown
Longitude
Unknown
Altitude
Unknown
Speed
Unknown
Apparent Right ascension
Unknown
Apparent Declination
Unknown
Sunlit
N/A
Visualization observer readout
Local Sidereal Time
20:44:50
Azimuth
Unknown
Elevation
Unknown
Doppler factor
Unknown
Orbital elements
Apogee altitude
877.479 km
Perigee altitude
698.738 km
Semi-major axis
7,166.245 km
Eccentricity
0.01247
Inclination
98.7694°
RAAN
275.8825°
Arg. of periapsis
278.5553°
True anomaly
81.56303°
Mean anomaly
80.1514°
Eccentric anomaly
80.85686°
Mean motion
3.57771 °/min
Orbital period
100.62 mins
BSTAR
0.00029723
Loading maneuver chart data...
Computing Atmospheric mass density...
Loading historical data...
Loading historical data...
Loading historical data...
Loading historical data...
Loading historical data...
Loading historical data...
Loading historical data...

Documentation

Showing up to 5 results
|